EW8363 Weather Reports


Display with metric or nautical units.
time (UTC)temp
F
wind
direction
speed
MPH
gust
MPH
rain 1hr
in
rain 24hr
in
rain mn
in
humidity
%
barometer
mb
20240619014849 71 135 2.0 5.0 0.00 0.00 0.00 19 1008.8
20240619014339 71 135 4.0 8.0 0.00 0.00 0.00 19 1008.8
20240619013834 71 135 7.0 8.0 0.00 0.00 0.00 11 1008.8
20240619013545 72 180 3.0 6.0 0.00 0.00 0.00 11 1008.8
20240619013030 71 90 3.0 7.0 0.00 0.00 0.00 11 1008.7
20240619012306 72 135 4.0 7.0 0.00 0.00 0.00 11 1008.9
20240619011750 72 180 3.0 7.0 0.00 0.00 0.00 11 1008.9
20240619011239 72 135 5.0 7.0 0.00 0.00 0.00 11 1009.0
20240619010730 72 90 4.0 7.0 0.00 0.00 0.00 11 1008.8
20240619010218 74 180 3.0 5.0 0.00 0.00 0.00 11 1008.8
20240619005708 74 180 4.0 5.0 0.00 0.00 0.00 11 1008.8
20240619005417 74 270 3.0 5.0 0.00 0.00 0.00 11 1008.8
20240619004907 73 180 4.0 5.0 0.00 0.00 0.00 11 1008.9
20240619004359 74 180 0.0 7.0 0.00 0.00 0.00 11 1008.6
20240619003629 72 225 5.0 9.0 0.00 0.00 0.00 11 1008.9
20240619003117 74 135 5.0 9.0 0.00 0.00 0.00 11 1008.9
20240619002609 74 180 3.0 7.0 0.00 0.00 0.00 11 1009.0
20240619002101 74 180 3.0 5.0 0.00 0.00 0.00 11 1008.8
20240619001547 75 180 4.0 6.0 0.00 0.00 0.00 11 1008.7
20240619001036 75 135 3.0 6.0 0.00 0.00 0.00 11 1008.9
20240619000753 76 180 4.0 6.0 0.00 0.00 0.00 11 1008.6
20240618235508 76 180 3.0 5.0 0.00 0.00 0.00 11 1009.0
20240618234958 78 180 1.0 7.0 0.00 0.00 0.00 11 1008.9
20240618234448 75 270 4.0 7.0 0.00 0.00 0.00 11 1008.9
20240618233937 75 180 3.0 7.0 0.00 0.00 0.00 11 1009.0
20240618233427 75 180 4.0 8.0 0.00 0.00 0.00 11 1009.1
20240618232917 76 135 1.0 11.0 0.00 0.00 0.00 11 1009.0
20240618232405 75 180 3.0 11.0 0.00 0.00 0.00 11 1009.1
20240618232118 74 180 5.0 8.0 0.00 0.00 0.00 11 1009.1
20240618231605 75 180 6.0 11.0 0.00 0.00 0.00 11 1009.0
20240618230834 76 180 5.0 11.0 0.00 0.00 0.00 11 1009.2
20240618230327 76 180 3.0 9.0 0.00 0.00 0.00 11 1008.9
20240618225814 74 180 7.0 11.0 0.00 0.00 0.00 11 1009.2
20240618225306 76 180 7.0 11.0 0.00 0.00 0.00 11 1009.1
20240618224756 76 180 9.0 11.0 0.00 0.00 0.00 19 1009.0
20240618224504 77 135 5.0 10.0 0.00 0.00 0.00 19 1009.1
20240618223739 76 270 9.0 10.0 0.00 0.00 0.00 19 1009.3
20240618223225 78 180 3.0 7.0 0.00 0.00 0.00 19 1009.1
20240618222933 79 180 2.0 8.0 0.00 0.00 0.00 19 1009.1
20240618222203 78 135 2.0 8.0 0.00 0.00 0.00 19 1009.1
20240618221656 78 135 3.0 8.0 0.00 0.00 0.00 19 1009.3
20240618221144 79 180 3.0 8.0 0.00 0.00 0.00 19 1009.2
20240618220633 80 180 4.0 7.0 0.00 0.00 0.00 19 1009.3
20240618220124 78 180 4.0 7.0 0.00 0.00 0.00 19 1009.1
20240618215613 82 180 1.0 7.0 0.00 0.00 0.00 19 1009.2
20240618215102 78 135 2.0 8.0 0.00 0.00 0.00 19 1009.2
20240618214556 77 135 2.0 8.0 0.00 0.00 0.00 19 1009.3
20240618214042 77 90 3.0 7.0 0.00 0.00 0.00 11 1009.2
20240618213532 76 270 3.0 8.0 0.00 0.00 0.00 11 1009.2
20240618213023 75 270 5.0 8.0 0.00 0.00 0.00 11 1009.3
20240618212512 75 180 7.0 8.0 0.00 0.00 0.00 19 1009.2
20240618212003 77 90 3.0 6.0 0.00 0.00 0.00 19 1009.3
20240618211453 75 135 4.0 6.0 0.00 0.00 0.00 19 1009.4
20240618210431 76 135 3.0 7.0 0.00 0.00 0.00 19 1009.4
20240618205922 76 225 3.0 7.0 0.00 0.00 0.00 11 1009.5
20240618205413 73 180 5.0 7.0 0.00 0.00 0.00 11 1009.5
20240618204900 75 225 3.0 9.0 0.00 0.00 0.00 19 1009.5
20240618204352 75 135 1.0 9.0 0.00 0.00 0.00 11 1009.5
20240618204107 73 225 5.0 7.0 0.00 0.00 0.00 11 1009.5
20240618203330 74 225 1.0 5.0 0.00 0.00 0.00 11 1009.4
20240618202823 72 90 4.0 7.0 0.00 0.00 0.00 19 1009.6
20240618202311 73 180 5.0 7.0 0.00 0.00 0.00 19 1009.6
20240618201759 73 180 3.0 7.0 0.00 0.00 0.00 19 1009.8
20240618201251 72 180 2.0 7.0 0.00 0.00 0.00 19 1009.6
20240618200739 71 270 5.0 7.0 0.00 0.00 0.00 19 1009.5
20240618200459 70 180 6.0 7.0 0.00 0.00 0.00 19 1009.5
20240618195723 70 90 3.0 7.0 0.00 0.00 0.00 19 1009.6
20240618195211 69 270 6.0 7.0 0.00 0.00 0.00 19 1009.6
20240618194658 70 135 2.0 7.0 0.00 0.00 0.00 19 1009.7
20240618194150 69 135 3.0 8.0 0.00 0.00 0.00 19 1009.7
20240618193639 68 180 5.0 10.0 0.00 0.00 0.00 19 1009.7
20240618193129 66 180 8.0 10.0 0.00 0.00 0.00 19 1009.6
20240618192619 69 180 3.0 7.0 0.00 0.00 0.00 19 1009.8
20240618191558 65 180 6.0 7.0 0.00 0.00 0.00 19 1009.9
20240618191050 65 270 3.0 7.0 0.00 0.00 0.00 15 1009.8
20240618190538 64 180 5.0 6.0 0.00 0.00 0.00 15 1009.8
20240618190027 65 315 3.0 5.0 0.00 0.00 0.00 15 1009.9
20240618185742 64 270 3.0 5.0 0.00 0.00 0.00 20 1010.0
20240618185009 64 180 3.0 4.0 0.00 0.00 0.00 20 1009.9
20240618184459 64 180 0.0 3.0 0.00 0.00 0.00 21 1009.8
20240618183948 63 0 1.0 4.0 0.00 0.00 0.00 24 1009.9
20240618183437 63 270 3.0 5.0 0.00 0.00 0.00 28 1009.7
20240618182927 63 135 1.0 5.0 0.00 0.00 0.00 31 1009.8
20240618182638 61 225 4.0 5.0 0.00 0.00 0.00 31 1009.8
20240618181908 62 180 1.0 5.0 0.00 0.00 0.00 32 1009.9
20240618181356 62 135 4.0 5.0 0.00 0.00 0.00 34 1009.7
20240618180848 61 270 2.0 4.0 0.00 0.00 0.00 37 1009.7
20240618180336 62 135 1.0 3.0 0.00 0.00 0.00 41 1009.6
20240618175826 61 90 2.0 3.0 0.00 0.00 0.00 42 1009.6
20240618175318 61 90 1.0 3.0 0.00 0.00 0.00 44 1009.4
20240618174806 61 90 1.0 5.0 0.00 0.00 0.00 46 1009.7
20240618174257 60 135 1.0 5.0 0.00 0.00 0.00 47 1009.3
20240618173746 60 90 3.0 4.0 0.00 0.00 0.00 49 1009.5
20240618173235 61 90 2.0 3.0 0.00 0.00 0.00 50 1009.5
20240618172727 60 90 2.0 3.0 0.00 0.00 0.00 50 1009.5
20240618172216 60 90 1.0 3.0 0.00 0.00 0.00 51 1009.3
20240618171706 59 180 1.0 3.0 0.00 0.00 0.00 51 1009.4
20240618171154 59 270 0.0 3.0 0.00 0.00 0.00 51 1009.4
20240618170912 59 180 3.0 3.0 0.00 0.00 0.00 51 1009.5
20240618170135 59 180 1.0 3.0 0.00 0.00 0.00 52 1009.5
20240618165623 59 180 1.0 2.0 0.00 0.00 0.00 52 1009.4
20240618165116 59 180 1.0 3.0 0.00 0.00 0.00 52 1009.4
20240618164603 58 270 2.0 3.0 0.00 0.00 0.00 52 1009.5
20240618164053 58 180 2.0 3.0 0.00 0.00 0.00 52 1009.5
20240618163809 58 135 1.0 3.0 0.00 0.00 0.00 52 1009.4
20240618163033 58 180 1.0 3.0 0.00 0.00 0.00 52 1009.2
20240618162523 59 180 0.0 3.0 0.00 0.00 0.00 52 1009.4
20240618162016 58 180 1.0 3.0 0.00 0.00 0.00 52 1009.5
20240618161504 58 180 1.0 3.0 0.00 0.00 0.00 52 1009.5
20240618160956 58 180 0.0 3.0 0.00 0.00 0.00 52 1009.4
20240618160445 58 180 1.0 3.0 0.00 0.00 0.00 52 1009.4
20240618160149 58 180 1.0 3.0 0.00 0.00 0.00 52 1009.2
20240618155424 58 270 1.0 4.0 0.00 0.00 0.00 52 1009.2
20240618154913 58 270 1.0 4.0 0.00 0.00 0.00 51 1009.2
20240618154404 58 180 3.0 3.0 0.00 0.00 0.00 51 1009.4
20240618153852 58 225 1.0 3.0 0.00 0.00 0.00 51 1009.1
20240618153343 58 180 2.0 4.0 0.00 0.00 0.00 51 1009.2
20240618152832 58 135 1.0 4.0 0.00 0.00 0.00 51 1009.1
20240618152324 58 90 2.0 4.0 0.00 0.00 0.00 51 1009.1
20240618151814 58 135 1.0 4.0 0.00 0.00 0.00 51 1008.8
20240618151301 57 135 2.0 3.0 0.00 0.00 0.00 51 1009.1
20240618150751 58 135 1.0 2.0 0.00 0.00 0.00 50 1009.0
20240618150242 57 180 1.0 3.0 0.00 0.00 0.00 50 1009.2
20240618145731 58 180 1.0 3.0 0.00 0.00 0.00 50 1008.8
20240618145222 57 180 2.0 3.0 0.00 0.00 0.00 50 1008.9
20240618144712 58 180 1.0 3.0 0.00 0.00 0.00 50 1008.7
20240618144159 58 180 1.0 3.0 0.00 0.00 0.00 50 1008.6
20240618143651 58 180 1.0 3.0 0.00 0.00 0.00 49 1008.6
20240618143405 58 180 0.0 3.0 0.00 0.00 0.00 48 1008.7
20240618142631 57 180 2.0 3.0 0.00 0.00 0.00 48 1008.7
20240618142343 57 180 2.0 3.0 0.00 0.00 0.00 47 1008.7
20240618141610 58 135 0.0 3.0 0.00 0.00 0.00 46 1008.7
20240618141101 57 90 1.0 3.0 0.00 0.00 0.00 46 1008.7
20240618140550 57 90 1.0 3.0 0.00 0.00 0.00 45 1008.7
20240618140042 57 90 1.0 3.0 0.00 0.00 0.00 45 1008.3
20240618135749 58 135 1.0 1.0 0.00 0.00 0.00 44 1008.3
20240618135020 57 180 1.0 3.0 0.00 0.00 0.00 44 1008.3
20240618134510 57 180 0.0 3.0 0.00 0.00 0.00 43 1008.2
20240618133958 57 135 2.0 3.0 0.00 0.00 0.00 43 1008.1
20240618133452 57 180 0.0 0.0 0.00 0.00 0.00 42 1008.2
20240618132939 58 180 0.0 2.0 0.00 0.00 0.00 42 1008.4
20240618132429 57 180 0.0 2.0 0.00 0.00 0.00 42 1008.4
20240618131917 57 180 1.0 3.0 0.00 0.00 0.00 41 1008.1
20240618131633 58 90 1.0 3.0 0.00 0.00 0.00 41 1008.2
20240618130859 58 180 0.0 3.0 0.00 0.00 0.00 40 1008.2
20240618130348 58 180 1.0 3.0 0.00 0.00 0.00 40 1008.1
20240618125838 58 90 1.0 2.0 0.00 0.00 0.00 40 1008.1
20240618125327 58 90 0.0 3.0 0.00 0.00 0.00 40 1008.2
20240618124817 58 0 0.0 3.0 0.00 0.00 0.00 40 1008.0
20240618124532 58 0 1.0 3.0 0.00 0.00 0.00 40 1008.0
20240618123758 58 90 0.0 3.0 0.00 0.00 0.00 40 1007.9
20240618123250 58 90 1.0 2.0 0.00 0.00 0.00 39 1007.8
20240618122738 58 45 1.0 3.0 0.00 0.00 0.00 40 1007.9
20240618122227 58 90 0.0 3.0 0.00 0.00 0.00 40 1008.0
20240618121944 58 0 1.0 3.0 0.00 0.00 0.00 40 1007.7
20240618121208 58 0 1.0 2.0 0.00 0.00 0.00 40 1007.6
20240618120921 58 90 0.0 2.0 0.00 0.00 0.00 40 1007.4
20240618120146 58 90 1.0 2.0 0.00 0.00 0.00 40 1007.5
20240618115637 58 90 1.0 2.0 0.00 0.00 0.00 40 1007.2
20240618115127 58 90 0.0 3.0 0.00 0.00 0.00 40 1007.4
20240618114615 58 90 3.0 3.0 0.00 0.00 0.00 40 1007.2
20240618114110 58 90 1.0 2.0 0.00 0.00 0.00 40 1007.4
20240618113557 58 90 0.0 1.0 0.00 0.00 0.00 41 1007.1
20240618113045 58 90 0.0 1.0 0.00 0.00 0.00 41 1006.9
20240618112537 58 45 0.0 1.0 0.00 0.00 0.00 41 1007.0
20240618112024 58 0 0.0 1.0 0.00 0.00 0.00 41 1007.1
20240618111515 58 0 0.0 3.0 0.00 0.00 0.00 41 1006.9
20240618111228 58 0 2.0 3.0 0.00 0.00 0.00 41 1007.0
20240618110454 58 0 1.0 3.0 0.00 0.00 0.00 41 1007.0
20240618110210 58 0 0.0 3.0 0.00 0.00 0.00 41 1007.1
20240618104924 58 45 0.0 3.0 0.00 0.00 0.00 41 1006.9
20240618104414 57 45 1.0 3.0 0.00 0.00 0.00 41 1006.8
20240618103905 58 0 2.0 3.0 0.00 0.00 0.00 41 1006.9
20240618103355 57 45 0.0 2.0 0.00 0.00 0.00 41 1006.8
20240618102843 57 90 0.0 2.0 0.00 0.00 0.00 40 1006.7
20240618102559 57 45 0.0 1.0 0.00 0.00 0.00 40 1006.7
20240618101822 57 0 0.0 1.0 0.00 0.00 0.00 40 1006.6
20240618101312 57 0 0.0 1.0 0.00 0.00 0.00 40 1006.6
20240618100805 57 0 0.0 0.0 0.00 0.00 0.00 40 1006.8
20240618100253 57 0 0.0 2.0 0.00 0.00 0.00 38 1006.6
20240618095742 57 0 0.0 2.0 0.00 0.00 0.00 38 1006.6
20240618095236 57 0 0.0 0.0 0.00 0.00 0.00 38 1006.6
20240618094722 57 0 0.0 0.0 0.00 0.00 0.00 37 1006.7
20240618094213 57 0 0.0 2.0 0.00 0.00 0.00 37 1006.7
20240618093703 58 0 0.0 3.0 0.00 0.00 0.00 37 1006.9
20240618093152 58 0 1.0 3.0 0.00 0.00 0.00 37 1006.8
20240618092641 58 0 1.0 3.0 0.00 0.00 0.00 36 1006.8
20240618092353 58 0 1.0 3.0 0.00 0.00 0.00 36 1006.8
20240618091844 58 0 1.0 2.0 0.00 0.00 0.00 36 1007.0
20240618091111 58 0 1.0 2.0 0.00 0.00 0.00 36 1007.0
20240618090602 58 0 0.0 3.0 0.00 0.00 0.00 36 1007.1
20240618090052 58 0 0.0 3.0 0.00 0.00 0.00 36 1007.1
20240618085542 58 90 0.0 1.0 0.00 0.00 0.00 36 1006.9
20240618085037 58 180 0.0 0.0 0.00 0.00 0.00 36 1007.7
20240618084549 58 90 1.0 2.0 0.00 0.00 0.00 36 1007.0
20240618083540 58 0 1.0 2.0 0.00 0.00 0.00 35 1007.1
20240618083017 58 45 0.0 1.0 0.00 0.00 0.00 35 1007.1
20240618082510 58 90 0.0 3.0 0.00 0.00 0.00 35 1007.1
20240618081957 59 90 1.0 3.0 0.00 0.00 0.00 35 1007.0
20240618081449 59 90 0.0 2.0 0.00 0.00 0.00 34 1007.2
20240618080951 59 90 0.0 2.0 0.00 0.00 0.00 34 1007.2
20240618080427 58 90 0.0 0.0 0.00 0.00 0.00 34 1007.2
20240618075918 58 90 0.0 0.0 0.00 0.00 0.00 34 1007.4
20240618075626 58 90 0.0 0.0 0.00 0.00 0.00 33 1007.2
20240618074856 58 45 0.0 2.0 0.00 0.00 0.00 33 1007.5
20240618074347 58 45 0.0 2.0 0.00 0.00 0.00 33 1007.2
20240618073840 58 90 1.0 1.0 0.00 0.00 0.00 33 1007.4
20240618073553 59 90 0.0 1.0 0.00 0.00 0.00 32 1007.4
20240618072546 59 90 0.0 0.0 0.00 0.00 0.00 32 1007.4
20240618071808 59 90 0.0 2.0 0.00 0.00 0.00 32 1007.4
20240618071245 59 90 0.0 2.0 0.00 0.00 0.00 32 1007.6
20240618070750 59 180 0.0 0.0 0.00 0.00 0.00 32 1007.5
20240618070239 59 180 0.0 0.0 0.00 0.00 0.00 31 1007.5
20240618065716 59 180 0.0 1.0 0.00 0.00 0.00 31 1007.5
20240618065205 59 180 0.0 2.0 0.00 0.00 0.00 31 1007.5
20240618064657 60 180 0.0 2.0 0.00 0.00 0.00 31 1007.5
20240618064145 60 180 1.0 2.0 0.00 0.00 0.00 31 1007.6
20240618063636 60 180 0.0 3.0 0.00 0.00 0.00 30 1007.7
20240618063125 60 180 0.0 4.0 0.00 0.00 0.00 30 1007.8
20240618062626 60 180 3.0 4.0 0.00 0.00 0.00 30 1007.9
20240618062109 60 225 2.0 4.0 0.00 0.00 0.00 30 1007.8
20240618061829 60 135 1.0 4.0 0.00 0.00 0.00 28 1007.9
20240618061314 60 180 1.0 4.0 0.00 0.00 0.00 28 1007.7
20240618060546 60 135 3.0 4.0 0.00 0.00 0.00 28 1007.7
20240618060036 60 135 3.0 4.0 0.00 0.00 0.00 28 1007.6
20240618055513 60 90 1.0 3.0 0.00 0.00 0.00 26 1007.6
20240618055005 60 135 3.0 4.0 0.00 0.00 0.00 26 1007.8
20240618054711 60 90 3.0 4.0 0.00 0.00 0.00 24 1007.6
20240618053955 60 135 3.0 4.0 0.00 0.00 0.00 24 1007.5
20240618053434 61 90 3.0 4.0 0.00 0.00 0.00 22 1007.7
20240618052923 61 135 3.0 7.0 0.00 0.00 0.00 22 1007.7
20240618052413 61 135 1.0 7.0 0.00 0.00 0.00 22 1007.4
20240618051903 61 135 3.0 7.0 0.00 0.00 0.00 20 1007.5
20240618051352 61 90 4.0 7.0 0.00 0.00 0.00 20 1007.5
20240618050844 61 135 3.0 6.0 0.00 0.00 0.00 20 1007.5
20240618050333 62 90 4.0 6.0 0.00 0.00 0.00 15 1007.6
20240618045823 62 90 3.0 5.0 0.00 0.00 0.00 15 1007.5
20240618045313 62 90 3.0 3.0 0.00 0.00 0.00 15 1007.4
20240618044803 62 90 3.0 3.0 0.00 0.00 0.00 15 1007.3
20240618044252 62 180 1.0 3.0 0.00 0.00 0.00 15 1007.4
20240618043743 62 180 1.0 5.0 0.00 0.00 0.00 15 1007.2
20240618043456 62 180 1.0 5.0 0.00 0.00 0.00 15 1007.3
20240618042721 62 135 1.0 4.0 0.00 0.00 0.00 15 1007.1
20240618042211 62 90 2.0 3.0 0.00 0.00 0.00 15 1007.1
20240618041702 62 135 3.0 3.0 0.00 0.00 0.00 15 1007.1
20240618041151 62 135 2.0 3.0 0.00 0.00 0.00 15 1007.4
20240618040641 63 180 1.0 4.0 0.00 0.00 0.00 19 1007.3
20240618040133 63 180 1.0 5.0 0.00 0.00 0.00 19 1007.4
20240618035620 63 135 3.0 5.0 0.00 0.00 0.00 19 1006.9
20240618034825 63 180 0.0 3.0 0.00 0.00 0.00 19 1007.2
20240618034050 63 180 0.0 3.0 0.00 0.00 0.00 19 1007.1
20240618033539 63 180 2.0 4.0 0.00 0.00 0.00 19 1007.1
20240618033029 64 180 1.0 4.0 0.00 0.00 0.00 19 1007.3
20240618032522 64 135 1.0 4.0 0.00 0.00 0.00 19 1007.1
20240618032010 64 135 2.0 8.0 0.00 0.00 0.00 19 1007.2
20240618031500 64 180 0.0 8.0 0.00 0.00 0.00 19 1007.3
20240618030950 64 90 3.0 5.0 0.00 0.00 0.00 19 1007.3
20240618030440 65 180 3.0 6.0 0.00 0.00 0.00 19 1007.0
20240618025930 65 90 1.0 6.0 0.00 0.00 0.00 19 1007.2
20240618025421 65 135 3.0 7.0 0.00 0.00 0.00 19 1007.1
20240618025130 65 90 2.0 8.0 0.00 0.00 0.00 19 1007.1
20240618024400 65 180 5.0 8.0 0.00 0.00 0.00 19 1007.1
20240618023847 65 135 7.0 8.0 0.00 0.00 0.00 19 1007.2
20240618023338 65 90 4.0 7.0 0.00 0.00 0.00 19 1007.1
20240618022828 65 135 5.0 6.0 0.00 0.00 0.00 19 1007.1
20240618022320 66 135 3.0 5.0 0.00 0.00 0.00 19 1007.1
20240618021808 67 180 1.0 7.0 0.00 0.00 0.00 19 1006.9
20240618021259 66 180 1.0 7.0 0.00 0.00 0.00 19 1007.0
20240618020748 67 180 2.0 5.0 0.00 0.00 0.00 19 1007.0
20240618020237 67 180 3.0 6.0 0.00 0.00 0.00 19 1006.9
20240618015729 67 135 1.0 6.0 0.00 0.00 0.00 19 1007.0